Home   Weather   Angels Camp   Past weeks

Flag for USA Past Weather in Angels Camp, California, USA — Yesterday and Last 2 Weeks

Now
40 °F

Passing clouds.


Feels Like: 38 °F
Forecast: 33 / 49 °F
Wind: 3 mph from Southeast

Location: Modesto City-County-Sham Field

Current Time: Jan 23, 2017 at 11:27:35 pm

Latest Report: Jan 23, 2017 at 10:53 pm


Visibility: 10 mi

Pressure: 29.93 "Hg

Humidity: 86%

Dew Point: 36 °F

Location of Angels CampLocation

Past Weather in Angels Camp — Graph

°F

Angels Camp Temperature Yesterday

Maximum temperature yesterday: 56 °F (at 1:33 pm)
Minimum temperature yesterday: 47 °F (at 8:53 pm)
Average temperature yesterday: 52 °F

High & Low Weather Summary for the Past Weeks

 TemperatureHumidityPressure
High62 °F (Jan 8, 9:53 pm)96% (Jan 20, 9:27 am)30.26 "Hg (Jan 20, 9:27 am)
Low34 °F (Jan 17, 6:53 am)55% (Jan 13, 2:53 pm)29.33 "Hg (Jan 20, 1:53 pm)
Average48 °F80%29.96 "Hg
* Reported Jan 8 9:53 pm — Jan 23 9:53 pm, Angels Camp, Weather by CustomWeather, © 2017

Note: Actual official high and low records may vary slightly from our data, if they occured in-between our weather recording intervals... More about our weather records

Advertising

Angels Camp Weather History for the Previous 24 Hours

Scroll right to see more
 ConditionsComfort  
Time TempWeatherWind HumidityBarometerVisibility
9:53 pm
Mon, Jan 23
40 °FClear.7 mph89%29.91 "Hg10 mi
8:53 pm42 °FClear.7 mph85%29.90 "Hg10 mi
7:53 pm44 °FPassing clouds.3 mph79%29.89 "Hg10 mi
6:53 pm46 °FClear.5 mph73%29.88 "Hg10 mi
5:53 pm50 °FPassing clouds.5 mph66%29.87 "Hg10 mi
4:53 pm51 °FScattered clouds.3 mph56%29.86 "Hg10 mi
3:53 pm53 °FScattered clouds.No wind55%29.86 "Hg10 mi
2:53 pm52 °FPartly sunny.7 mph57%29.86 "Hg10 mi
1:53 pm52 °FBroken clouds.6 mph59%29.84 "Hg10 mi
12:53 pm54 °FBroken clouds.6 mph55%29.85 "Hg10 mi
12:37 pm53 °FPartly sunny.8 mph56%29.86 "Hg10 mi
11:53 am54 °FPartly sunny.3 mph64%29.86 "Hg10 mi
10:53 am50 °FPassing clouds.3 mph77%29.88 "Hg10 mi
9:53 am49 °FOvercast.No wind77%29.88 "Hg10 mi
8:53 am47 °FOvercast.7 mph86%29.85 "Hg10 mi
7:53 am44 °FBroken clouds.5 mph89%29.83 "Hg10 mi
6:53 am44 °FMostly cloudy.No wind89%29.80 "Hg10 mi
5:53 am43 °FMostly cloudy.7 mph89%29.79 "Hg10 mi
4:53 am42 °FPassing clouds.3 mph89%29.78 "Hg10 mi
3:53 am44 °FOvercast.No wind89%29.77 "Hg10 mi
2:53 am45 °FPassing clouds.No wind86%29.76 "Hg10 mi
1:53 am46 °FPartly cloudy.No wind83%29.75 "Hg10 mi
12:53 am47 °FPassing clouds.5 mph86%29.73 "Hg10 mi
11:53 pm
Sun, Jan 22
48 °FLight rain. Overcast.8 mph86%29.72 "Hg10 mi
Weather by CustomWeather, © 2017

See weather overviewHow to use our weather pages